Location: Newark
(55.8871°S, 37.4681°W)
Time: 09:46:40
(UTC+00:00)

N. Korean satellite - Pass Details

Date: 18 October 2019
Orbit: 456 x 506 km, 97.2° (Epoch: 19 November)

Event Time Altitude Azimuth Distance (km) Brightness Sun altitude
Rises 22:04:33 0° 176° (S) 2,620 10.6 -6.5°
Reaches altitude 10° 22:07:11 10° 196° (SSW) 1,718 10.1 -6.9°
Maximum altitude 22:09:38 17° 237° (WSW) 1,317 10.2 -7.2°
Drops below altitude 10° 22:12:03 10° 279° (W) 1,684 10.1 -7.4°
Sets 22:14:36 0° 299° (WNW) 2,545 10.7 -7.8°
